QPF
0.00 0.00 0.00 0.00 0.00 0.00 0.00 0.04 0.06 0.00 0.00 0.00 0.00 0.00 0.00 0.00 0.00 0.00 0.00 0.00 0.00 0.00
0.02 0.00 0.00 0.00 0.00 0.00 0.00 0.01 0.09 0.04 0.04 0.05 0.00 0.00 0.00 0.00 0.00 0.00 0.00 0.00 0.00 0.00
0.08 0.04 0.03 0.00 0.00 0.00 0.00 0.00 0.00 0.01 0.00 0.00 0.02 0.04 0.00 0.00 0.00 0.00 0.00 0.00 0.00 0.01
0.05 0.16 0.04 0.03 0.01 0.00 0.00 0.00 0.00 0.00 0.01 0.08 0.01 0.02 0.03 0.00 0.00 0.00 0.00 0.00 0.00 0.01
0.18 0.27 0.05 0.01 0.04 0.02 0.00 0.00 0.00 0.00 0.00 0.01 0.04 0.05 0.00 0.00 0.00 0.00 0.00 0.00 0.00 0.00
0.06 0.06 0.08 0.05 0.02 0.02 0.01 0.00 0.00 0.00 0.00 0.00 0.00 0.02 0.01 0.00 0.00 0.00 0.00 0.00 0.00 0.00
0.03 0.01 0.03 0.13 0.17 0.06 0.02 0.00 0.01 0.01 0.00 0.00 0.00 0.00 0.00 0.01 0.01 0.01 0.01 0.00 0.00 0.00
0.02 0.08 0.13 0.13 0.08 0.15 0.19 0.03 0.03 0.06 0.00 0.00 0.00 0.00 0.00 0.00 0.00 0.01 0.02 0.00 0.00 0.00
0.06 0.15 0.17 0.21 0.25 0.31 0.37 0.33 0.25 0.11 0.08 0.02 0.01 0.01 0.00 0.01 0.00 0.00 0.01 0.01 0.00 0.00
0.00 0.06 0.17 0.22 0.24 0.41 0.54 0.57 0.55 0.50 0.37 0.15 0.16 0.17 0.08 0.09 0.02 0.00 0.00 0.00 0.00 0.00
0.00 0.01 0.03 0.10 0.12 0.19 0.20 0.24 0.43 0.48 0.49 0.47 0.41 0.36 0.37 0.30 0.15 0.03 0.00 0.00 0.00 0.00
0.00 0.00 0.00 0.01 0.02 0.03 0.09 0.09 0.06 0.07 0.17 0.24 0.21 0.20 0.28 0.29 0.25 0.10 0.02 0.00 0.01 0.00
0.00 0.00 0.00 0.00 0.00 0.00 0.00 0.01 0.02 0.03 0.05 0.07 0.09 0.09 0.19 0.24 0.21 0.15 0.12 0.02 0.00 0.00
0.00 0.00 0.00 0.00 0.00 0.00 0.00 0.00 0.00 0.00 0.00 0.00 0.01 0.00 0.02 0.03 0.03 0.03 0.04 0.02 0.02 0.00
MSLP
1013.83 1014.17 1014.24 1014.27 1014.41 1014.54 1014.57 1014.76 1014.98 1015.31 1015.48 1015.61 1015.79 1015.88 1016.21 1016.65 1016.84 1016.93 1016.86 1016.89 1017.09 1017.09
1013.64 1014.10 1013.89 1013.85 1014.03 1014.18 1014.20 1014.25 1014.45 1014.68 1015.04 1015.24 1015.35 1015.45 1015.88 1016.30 1016.47 1016.60 1016.59 1016.67 1016.79 1016.97
1013.22 1013.12 1013.34 1013.60 1013.63 1013.60 1013.71 1013.87 1013.97 1014.16 1014.27 1014.40 1014.63 1014.99 1015.29 1015.65 1015.81 1016.15 1016.15 1016.30 1016.58 1016.73
1012.80 1012.95 1012.97 1012.66 1012.81 1013.10 1013.09 1013.21 1013.45 1013.56 1013.77 1013.83 1013.93 1014.25 1014.60 1014.81 1015.00 1015.40 1015.63 1015.77 1016.04 1016.24
1012.78 1012.07 1011.99 1011.81 1011.76 1012.07 1012.41 1012.38 1012.57 1012.94 1013.13 1013.20 1013.24 1013.46 1013.77 1014.02 1014.14 1014.53 1014.92 1015.09 1015.42 1015.63
1012.90 1012.08 1011.59 1011.07 1010.57 1010.79 1011.12 1011.36 1011.59 1011.91 1012.28 1012.38 1012.50 1012.80 1013.01 1013.22 1013.43 1013.63 1013.87 1014.27 1014.66 1014.90
1012.31 1011.15 1010.84 1009.98 1009.41 1009.69 1009.77 1010.07 1010.40 1010.62 1010.97 1011.35 1011.65 1011.89 1012.14 1012.57 1012.80 1012.93 1013.16 1013.45 1013.76 1014.09
1010.98 1010.66 1010.30 1009.69 1008.85 1008.72 1008.90 1008.74 1008.86 1009.58 1009.96 1010.32 1010.81 1011.10 1011.46 1011.89 1012.16 1012.28 1012.54 1012.75 1012.97 1013.28
1010.68 1010.27 1009.92 1009.40 1009.48 1008.73 1008.66 1008.23 1007.77 1008.11 1008.63 1009.30 1009.69 1009.97 1010.57 1011.01 1011.41 1011.69 1011.94 1012.17 1012.25 1012.45
1010.52 1010.09 1009.45 1008.77 1009.07 1008.79 1008.11 1007.00 1007.26 1007.43 1007.93 1008.40 1008.84 1009.48 1009.73 1010.20 1010.67 1011.04 1011.11 1011.26 1011.48 1011.68
1010.47 1010.06 1009.56 1009.10 1008.66 1008.54 1007.82 1006.56 1006.13 1006.79 1007.67 1009.26 1010.14 1010.66 1011.12 1010.79 1010.40 1010.49 1010.52 1010.61 1010.67 1010.82
1010.20 1009.97 1009.83 1009.25 1008.63 1008.01 1007.30 1006.68 1006.32 1006.52 1007.43 1008.07 1008.72 1008.45 1011.71 1011.37 1010.68 1010.33 1010.12 1010.32 1010.23 1010.18
1009.60 1009.36 1009.06 1009.03 1008.81 1008.27 1007.81 1007.36 1007.09 1007.54 1006.91 1007.17 1008.35 1008.54 1008.86 1010.67 1011.33 1010.45 1010.14 1009.71 1009.37 1009.41
1008.90 1008.67 1008.44 1008.21 1008.20 1008.07 1007.71 1007.65 1007.23 1007.30 1007.55 1007.77 1007.42 1007.51 1007.30 1009.21 1009.39 1008.99 1009.57 1009.16 1008.52 1008.13
Thickness
5772 5769 5770 5769 5769 5768 5770 5768 5766 5763 5760 5759 5758 5757 5756 5756 5755 5754 5758 5759 5760 5760
5772 5764 5767 5768 5767 5767 5769 5771 5769 5766 5763 5761 5760 5759 5757 5755 5755 5754 5755 5757 5759 5757
5773 5774 5771 5769 5766 5767 5767 5767 5768 5766 5765 5766 5765 5763 5761 5757 5757 5755 5756 5756 5755 5755
5771 5771 5772 5774 5774 5767 5768 5766 5765 5765 5765 5765 5766 5765 5762 5761 5760 5758 5757 5757 5756 5755
5762 5770 5772 5775 5777 5777 5770 5770 5767 5765 5763 5765 5766 5765 5763 5762 5763 5760 5758 5758 5756 5755
5759 5766 5769 5776 5779 5782 5778 5774 5772 5767 5763 5763 5765 5764 5763 5763 5763 5763 5762 5760 5757 5757
5758 5768 5770 5781 5783 5781 5783 5779 5775 5773 5769 5767 5765 5766 5764 5761 5760 5762 5762 5762 5760 5758
5762 5763 5764 5771 5782 5781 5778 5782 5780 5774 5771 5768 5765 5764 5762 5759 5757 5758 5758 5760 5760 5759
5751 5755 5760 5764 5759 5766 5764 5770 5778 5777 5773 5768 5766 5766 5761 5758 5756 5755 5754 5754 5758 5759
5740 5742 5750 5757 5751 5754 5737 5751 5762 5768 5768 5765 5762 5756 5756 5754 5753 5752 5755 5756 5756 5757
5721 5726 5730 5736 5741 5741 5748 5757 5746 5739 5747 5737 5728 5731 5729 5735 5745 5750 5753 5756 5759 5758
5703 5708 5707 5712 5721 5729 5737 5744 5749 5740 5729 5724 5716 5714 5708 5721 5731 5740 5746 5748 5753 5757
5692 5697 5701 5699 5701 5709 5717 5722 5727 5719 5729 5727 5715 5715 5718 5712 5711 5723 5731 5737 5746 5751
5682 5686 5691 5694 5693 5694 5699 5702 5711 5713 5716 5717 5718 5710 5729 5705 5717 5728 5727 5736 5746 5755